Location: Handeloh
(53.2500°N, 9.8330°E)
Time: 14:15:06
(UTC+01:00)

Tiros 1 - Visible Passes

Search period start: 19 November 2019 00:00
Search period end: 29 November 2019 00:00
Orbit: 630 x 664 km, 48.4° (Epoch: 18 November)

Date Brightness Start Highest point End Pass type
(mag) Time Alt. Az. Time Alt. Az. Time Alt. Az.
19 Nov 8.0 18:02:30 10° W 18:06:54 44° S 18:10:05 18° SE visible
19 Nov 9.1 19:44:44 10° W 19:47:45 23° SW 19:47:45 23° SW visible
20 Nov 8.4 18:28:31 10° W 18:32:43 35° SSW 18:35:11 21° SSE visible
20 Nov 9.8 20:11:30 10° WSW 20:12:52 13° SW 20:12:52 13° SW visible
21 Nov 8.1 17:12:29 10° W 17:16:53 44° S 17:21:19 10° ESE visible
21 Nov 9.0 18:54:42 10° W 18:58:27 24° SSW 19:00:25 19° S visible
22 Nov 8.5 17:38:29 10° W 17:42:44 36° SSW 17:46:58 10° SE visible
22 Nov 9.6 19:21:21 10° WSW 19:24:01 15° SW 19:25:47 13° SSW visible
23 Nov 9.1 18:04:39 10° W 18:08:27 25° SSW 18:12:17 10° SSE visible
24 Nov 8.6 16:48:28 10° W 16:52:43 37° SSW 16:56:59 10° SE visible
24 Nov 9.7 18:31:14 10° WSW 18:34:04 16° SW 18:36:53 10° S visible
25 Nov 9.2 17:14:36 10° W 17:18:28 26° SSW 17:22:20 10° SSE visible
26 Nov 9.8 17:41:07 10° WSW 17:44:06 17° SW 17:47:04 10° S visible
28 Nov 9.9 16:51:01 10° WSW 16:54:06 18° SW 16:57:12 10° S visible
